Погода в Хохломе

Россия / Нижегородская область     56°58′31″N   43°54′08″E
темп.,
°C
ветер,
м/с
пор.,
м/с
влажн.,
%
обл.,
%
осадки,
мм/ч
давл.,
гПа
погр.,
м
27 сентября, пн
пн2700:00+5ссв389794 0.0 1013204
03:00+7с3996100 0.0 1014458
06:00+8ссв4109591 0.1 1015566
09:00+8ссв4993100 0.2 1016718
12:00+8ссв5890100 0.1 10181012
15:00+7св5992100 0.3 10201082
18:00+5всв5996100 1.1 10221013
21:00+5св51089100 1.1 1024997
28 сентября, вт
вт2800:00+5св4108752 0.0 1026748
03:00+2св410935 0.0 1028424
06:00+1св39960 0.0 1029260
09:00+5св48755 0.0 1030458
12:00+8св455249 0.0 1030963
15:00+10св454558 0.0 10311186
18:00+5ссв23685 0.0 103250
21:00+3ссв24780 0.0 103362
29 сентября, ср
ср2900:00+2ссв22815 0.0 103343
03:00+1с238470 0.0 103343
06:00+1с248590 0.0 103478
09:00+6ссв246630 0.0 1034342
12:00+10ссв235185 0.0 1033987
15:00+9св2462100 0.0 1033459
18:00+7ссв2273100 0.0 103347
21:00+6ссв1179100 0.0 103437
30 сентября, чт
чт3000:00+5с118832 0.0 103411
03:00+4ссз119453 0.0 103410
06:00+3сз11955 0.0 103410
09:00+8ссз12765 0.0 1035267
12:00+12сз23585 0.0 10341013
15:00+12сз2359100 0.0 1033868
18:00+9зсз2475100 0.0 103399
21:00+9зсз2675100 0.0 1033145
1 октября, пт
пт100:00+9зсз2583100 0.0 1033134
03:00+9зсз2686100 0.0 1033173
06:00+9зсз3787100 0.0 1033226
09:00+11сз357985 0.0 1033361
12:00+15сз346478 0.0 10331025
15:00+14зсз346792 0.0 1033904
18:00+12зсз257696 0.0 1033141
21:00+11зсз248097 0.0 1033116